Time,TemperatureF,DewpointF,PressureIn,WindDirection,WindDirectionDegrees,WindSpeedMPH,WindSpeedGustMPH,Humidity,HourlyPrecipIn,Conditions,Clouds,dailyrainin,SoftwareType,DateUTC
2013-03-22 00:03:00,24.0,22.0,29.79,SW,219,6.0,13.0,91,0.00,,,-99.99,,2013-03-22 04:03:00,
2013-03-22 00:12:00,24.0,22.0,29.79,SW,219,6.0,13.0,91,0.00,,,-99.99,,2013-03-22 04:12:00,
2013-03-22 00:23:00,24.0,22.0,29.79,SSW,206,4.0,14.0,91,0.00,,,-99.99,,2013-03-22 04:23:00,
2013-03-22 00:32:00,23.0,21.0,29.79,SW,224,3.0,14.0,91,0.00,,,-99.99,,2013-03-22 04:32:00,
2013-03-22 00:43:00,23.0,21.0,29.79,SW,224,3.0,14.0,91,0.00,,,-99.99,,2013-03-22 04:43:00,
2013-03-22 00:52:00,23.0,21.0,29.79,South,174,4.0,14.0,91,0.00,,,-99.99,,2013-03-22 04:52:00,
2013-03-22 01:02:00,23.0,21.0,29.79,SSW,200,2.0,10.0,92,0.00,,,-99.99,,2013-03-22 05:02:00,
2013-03-22 01:12:00,23.0,21.0,29.79,SSW,200,2.0,10.0,92,0.00,,,-99.99,,2013-03-22 05:12:00,
2013-03-22 01:22:00,23.0,21.0,29.78,SW,227,2.0,10.0,93,0.00,,,-99.99,,2013-03-22 05:22:00,
2013-03-22 01:32:00,23.0,21.0,29.78,SW,227,2.0,10.0,93,0.00,,,-99.99,,2013-03-22 05:32:00,
2013-03-22 01:42:00,23.0,21.0,29.78,SW,227,2.0,10.0,93,0.00,,,-99.99,,2013-03-22 05:42:00,
2013-03-22 01:52:00,23.0,21.0,29.78,SW,227,2.0,10.0,93,0.00,,,-99.99,,2013-03-22 05:52:00,
2013-03-22 02:02:00,23.0,21.0,29.78,SW,227,2.0,10.0,93,0.00,,,-99.99,,2013-03-22 06:02:00,
2013-03-22 02:32:00,23.0,21.0,29.78,SW,215,1.0,12.0,92,0.00,,,-99.99,,2013-03-22 06:32:00,
2013-03-22 02:43:00,23.0,21.0,29.78,SW,215,1.0,12.0,92,0.00,,,-99.99,,2013-03-22 06:43:00,
2013-03-22 02:52:00,23.0,21.0,29.78,SW,216,6.0,18.0,92,0.00,,,-99.99,,2013-03-22 06:52:00,
2013-03-22 03:03:00,23.0,21.0,29.78,SW,216,6.0,18.0,92,0.00,,,-99.99,,2013-03-22 07:03:00,
2013-03-22 03:12:00,23.0,21.0,29.78,SW,216,6.0,18.0,92,0.00,,,-99.99,,2013-03-22 07:12:00,
2013-03-22 03:22:00,24.0,22.0,29.78,South,183,6.0,15.0,92,0.00,,,-99.99,,2013-03-22 07:22:00,
2013-03-22 03:32:00,24.0,22.0,29.78,South,183,6.0,15.0,92,0.00,,,-99.99,,2013-03-22 07:32:00,
2013-03-22 03:42:00,24.0,22.0,29.78,South,183,6.0,15.0,92,0.00,,,-99.99,,2013-03-22 07:42:00,
2013-03-22 03:52:00,24.0,22.0,29.78,SSW,212,6.0,16.0,92,0.00,,,-99.99,,2013-03-22 07:52:00,
2013-03-22 04:03:00,24.0,22.0,29.78,SSW,208,6.0,18.0,92,0.00,,,-99.99,,2013-03-22 08:03:00,
2013-03-22 04:13:00,24.0,22.0,29.78,SSW,208,6.0,18.0,92,0.00,,,-99.99,,2013-03-22 08:13:00,
2013-03-22 04:22:00,24.0,22.0,29.78,SSW,206,6.0,19.0,92,0.00,,,-99.99,,2013-03-22 08:22:00,
2013-03-22 04:32:00,24.0,22.0,29.78,SW,216,6.0,13.0,92,0.00,,,-99.99,,2013-03-22 08:32:00,
2013-03-22 04:42:00,24.0,22.0,29.78,SW,216,6.0,13.0,92,0.00,,,-99.99,,2013-03-22 08:42:00,
2013-03-22 04:52:00,24.0,22.0,29.78,SSW,192,6.0,23.0,92,0.00,,,-99.99,,2013-03-22 08:52:00,
2013-03-22 05:02:00,24.0,22.0,29.78,SSW,211,7.0,16.0,92,0.00,,,-99.99,,2013-03-22 09:02:00,
2013-03-22 05:12:00,24.0,22.0,29.78,SSW,211,7.0,16.0,92,0.00,,,-99.99,,2013-03-22 09:12:00,
2013-03-22 05:22:00,24.0,22.0,29.78,SW,215,6.0,16.0,93,0.00,,,-99.99,,2013-03-22 09:22:00,
2013-03-22 05:32:00,23.0,21.0,29.78,SW,215,4.0,13.0,93,0.00,,,-99.99,,2013-03-22 09:32:00,
2013-03-22 05:42:00,23.0,21.0,29.78,SW,215,4.0,13.0,93,0.00,,,-99.99,,2013-03-22 09:42:00,
2013-03-22 05:53:00,24.0,22.0,29.78,SSW,198,6.0,16.0,93,0.00,,,-99.99,,2013-03-22 09:53:00,
2013-03-22 06:04:00,24.0,22.0,29.78,SSW,207,5.0,13.0,93,0.00,,,-99.99,,2013-03-22 10:04:00,
2013-03-22 06:12:00,24.0,22.0,29.78,SSW,207,5.0,13.0,93,0.00,,,-99.99,,2013-03-22 10:12:00,
2013-03-22 06:22:00,24.0,22.0,29.78,SW,223,10.0,15.0,92,0.00,,,-99.99,,2013-03-22 10:22:00,
2013-03-22 06:33:00,24.0,22.0,29.78,South,174,5.0,14.0,92,0.00,,,-99.99,,2013-03-22 10:33:00,
2013-03-22 06:42:00,24.0,22.0,29.78,South,174,5.0,14.0,92,0.00,,,-99.99,,2013-03-22 10:42:00,
2013-03-22 06:52:00,24.0,22.0,29.79,SSW,201,5.0,14.0,92,0.00,,,-99.99,,2013-03-22 10:52:00,
2013-03-22 07:03:00,24.0,22.0,29.79,SSW,210,7.0,20.0,92,0.00,,,-99.99,,2013-03-22 11:03:00,
2013-03-22 07:12:00,24.0,22.0,29.79,SSW,210,7.0,20.0,92,0.00,,,-99.99,,2013-03-22 11:12:00,
2013-03-22 07:22:00,24.0,22.0,29.79,SW,215,6.0,20.0,92,0.00,,,-99.99,,2013-03-22 11:22:00,
2013-03-22 07:33:00,23.0,21.0,29.80,SSW,200,6.0,14.0,92,0.00,,,-99.99,,2013-03-22 11:33:00,
2013-03-22 07:42:00,23.0,21.0,29.80,SSW,200,6.0,14.0,92,0.00,,,-99.99,,2013-03-22 11:42:00,
2013-03-22 07:52:00,23.0,21.0,29.80,SW,214,6.0,19.0,92,0.00,,,-99.99,,2013-03-22 11:52:00,
2013-03-22 08:02:00,23.0,21.0,29.81,SSW,195,6.0,18.0,92,0.00,,,-99.99,,2013-03-22 12:02:00,
2013-03-22 08:12:00,24.0,22.0,29.81,SSW,203,6.0,15.0,92,0.00,,,-99.99,,2013-03-22 12:12:00,
2013-03-22 08:22:00,24.0,22.0,29.81,SSW,203,6.0,15.0,92,0.00,,,-99.99,,2013-03-22 12:22:00,
2013-03-22 08:32:00,24.0,22.0,29.83,SSW,213,5.0,12.0,92,0.00,,,-99.99,,2013-03-22 12:32:00,
2013-03-22 08:42:00,24.0,22.0,29.83,SSW,213,5.0,12.0,92,0.00,,,-99.99,,2013-03-22 12:42:00,
2013-03-22 08:52:00,23.0,21.0,29.83,SW,214,6.0,13.0,92,0.00,,,-99.99,,2013-03-22 12:52:00,
2013-03-22 09:02:00,24.0,22.0,29.83,SW,214,1.0,9.0,93,0.00,,,-99.99,,2013-03-22 13:02:00,
2013-03-22 09:12:00,24.0,22.0,29.83,SW,214,1.0,9.0,93,0.00,,,-99.99,,2013-03-22 13:12:00,
2013-03-22 09:22:00,24.0,22.0,29.83,SW,215,4.0,11.0,93,0.00,,,-99.99,,2013-03-22 13:22:00,
2013-03-22 09:32:00,24.0,22.0,29.83,SW,216,5.0,14.0,92,0.01,,,-99.99,,2013-03-22 13:32:00,
2013-03-22 09:42:00,24.0,22.0,29.83,SW,216,5.0,14.0,92,0.01,,,-99.99,,2013-03-22 13:42:00,
2013-03-22 09:52:00,24.0,22.0,29.83,SSW,195,3.0,9.0,92,0.01,,,-99.99,,2013-03-22 13:52:00,
2013-03-22 10:03:00,24.0,22.0,29.83,SSW,204,4.0,13.0,92,0.01,,,-99.99,,2013-03-22 14:03:00,
2013-03-22 10:12:00,24.0,22.0,29.83,SSW,204,4.0,13.0,92,0.01,,,-99.99,,2013-03-22 14:12:00,
2013-03-22 10:22:00,24.0,22.0,29.83,South,171,4.0,12.0,92,0.01,,,-99.99,,2013-03-22 14:22:00,
2013-03-22 10:32:00,24.0,22.0,29.84,SW,218,4.0,11.0,92,0.01,,,-99.99,,2013-03-22 14:32:00,
2013-03-22 10:42:00,24.0,22.0,29.84,SW,218,4.0,11.0,92,0.01,,,-99.99,,2013-03-22 14:42:00,
2013-03-22 10:52:00,25.0,23.0,29.85,SSW,209,4.0,11.0,92,0.01,,,-99.99,,2013-03-22 14:52:00,
2013-03-22 11:03:00,25.0,23.0,29.85,SW,215,2.0,11.0,92,0.01,,,-99.99,,2013-03-22 15:03:00,
2013-03-22 11:12:00,25.0,23.0,29.85,SW,215,2.0,11.0,92,0.01,,,-99.99,,2013-03-22 15:12:00,
2013-03-22 11:22:00,25.0,23.0,29.85,SSW,206,2.0,9.0,92,0.01,,,-99.99,,2013-03-22 15:22:00,
2013-03-22 11:33:00,26.0,24.0,29.85,SSW,211,3.0,10.0,91,0.00,,,-99.99,,2013-03-22 15:33:00,
2013-03-22 11:42:00,26.0,24.0,29.85,SSW,211,3.0,10.0,91,0.00,,,-99.99,,2013-03-22 15:42:00,
2013-03-22 11:53:00,27.0,25.0,29.85,SSW,196,2.0,9.0,91,0.00,,,-99.99,,2013-03-22 15:53:00,
2013-03-22 12:03:00,29.0,26.0,29.85,SW,226,4.0,11.0,90,0.00,,,-99.99,,2013-03-22 16:03:00,
2013-03-22 12:13:00,30.0,27.0,29.85,South,169,4.0,14.0,90,0.00,,,-99.99,,2013-03-22 16:13:00,
2013-03-22 12:23:00,30.0,27.0,29.85,South,169,4.0,14.0,90,0.00,,,-99.99,,2013-03-22 16:23:00,
2013-03-22 12:32:00,30.0,27.0,29.85,SSW,209,6.0,17.0,87,0.01,,,-99.99,,2013-03-22 16:32:00,
2013-03-22 12:42:00,30.0,26.0,29.85,SSW,210,5.0,16.0,86,0.01,,,-99.99,,2013-03-22 16:42:00,
2013-03-22 12:52:00,30.0,26.0,29.85,SSW,210,5.0,16.0,86,0.01,,,-99.99,,2013-03-22 16:52:00,
2013-03-22 13:03:00,29.0,25.0,29.85,SW,221,6.0,18.0,86,0.01,,,-99.99,,2013-03-22 17:03:00,
2013-03-22 13:12:00,29.0,25.0,29.85,SSW,208,6.0,15.0,86,0.01,,,-99.99,,2013-03-22 17:12:00,
2013-03-22 13:23:00,29.0,25.0,29.85,SSW,208,6.0,15.0,86,0.01,,,-99.99,,2013-03-22 17:23:00,
2013-03-22 13:32:00,29.0,25.0,29.85,SSW,199,4.0,16.0,85,0.00,,,-99.99,,2013-03-22 17:32:00,
2013-03-22 13:42:00,29.0,25.0,29.85,SSW,199,4.0,16.0,85,0.00,,,-99.99,,2013-03-22 17:42:00,
2013-03-22 13:52:00,29.0,25.0,29.85,SSW,199,4.0,16.0,85,0.00,,,-99.99,,2013-03-22 17:52:00,
2013-03-22 14:02:00,29.0,25.0,29.86,SSW,194,6.0,14.0,85,0.00,,,-99.99,,2013-03-22 18:02:00,
2013-03-22 14:12:00,29.0,25.0,29.86,SSW,194,6.0,14.0,85,0.00,,,-99.99,,2013-03-22 18:12:00,
2013-03-22 14:22:00,30.0,26.0,29.86,South,184,5.0,15.0,85,0.00,,,-99.99,,2013-03-22 18:22:00,
2013-03-22 14:33:00,30.0,26.0,29.86,SSW,193,5.0,13.0,84,0.00,,,-99.99,,2013-03-22 18:33:00,
2013-03-22 14:42:00,30.0,26.0,29.86,SSW,193,5.0,13.0,84,0.00,,,-99.99,,2013-03-22 18:42:00,
2013-03-22 14:52:00,30.0,25.0,29.85,SSW,210,5.0,15.0,83,0.00,,,-99.99,,2013-03-22 18:52:00,
2013-03-22 15:02:00,31.0,26.0,29.86,SSW,208,3.0,11.0,83,0.00,,,-99.99,,2013-03-22 19:02:00,
2013-03-22 15:12:00,31.0,26.0,29.86,SSW,194,6.0,15.0,82,0.00,,,-99.99,,2013-03-22 19:12:00,
2013-03-22 15:22:00,31.0,26.0,29.86,SSW,194,6.0,15.0,82,0.00,,,-99.99,,2013-03-22 19:22:00,
2013-03-22 15:32:00,32.0,27.0,29.86,SW,228,5.0,13.0,81,0.00,,,-99.99,,2013-03-22 19:32:00,
2013-03-22 15:42:00,32.0,27.0,29.86,SW,228,5.0,13.0,81,0.00,,,-99.99,,2013-03-22 19:42:00,
2013-03-22 15:52:00,33.0,28.0,29.86,SW,223,4.0,13.0,81,0.00,,,-99.99,,2013-03-22 19:52:00,
2013-03-22 16:02:00,33.0,27.0,29.86,SSW,198,6.0,14.0,79,0.00,,,-99.99,,2013-03-22 20:02:00,
2013-03-22 16:12:00,33.0,27.0,29.86,SSW,198,6.0,14.0,79,0.00,,,-99.99,,2013-03-22 20:12:00,
2013-03-22 16:22:00,33.0,27.0,29.86,SSW,199,4.0,13.0,79,0.00,,,-99.99,,2013-03-22 20:22:00,
2013-03-22 16:32:00,32.0,26.0,29.86,SW,217,2.0,13.0,79,0.00,,,-99.99,,2013-03-22 20:32:00,
2013-03-22 16:43:00,32.0,26.0,29.86,SW,217,2.0,13.0,79,0.00,,,-99.99,,2013-03-22 20:43:00,
2013-03-22 16:52:00,33.0,27.0,29.86,SW,215,6.0,14.0,79,0.00,,,-99.99,,2013-03-22 20:52:00,
2013-03-22 17:03:00,33.0,27.0,29.86,SSW,202,5.0,15.0,79,0.00,,,-99.99,,2013-03-22 21:03:00,
2013-03-22 17:12:00,33.0,28.0,29.86,SW,216,5.0,13.0,80,0.00,,,-99.99,,2013-03-22 21:12:00,
2013-03-22 17:22:00,33.0,28.0,29.86,SW,216,5.0,13.0,80,0.00,,,-99.99,,2013-03-22 21:22:00,
2013-03-22 17:33:00,33.0,28.0,29.86,SSE,165,4.0,12.0,80,0.00,,,-99.99,,2013-03-22 21:33:00,
2013-03-22 17:43:00,33.0,28.0,29.86,SSE,165,4.0,12.0,80,0.00,,,-99.99,,2013-03-22 21:43:00,
2013-03-22 17:53:00,34.0,28.0,29.87,South,179,6.0,17.0,79,0.00,,,-99.99,,2013-03-22 21:53:00,
2013-03-22 18:03:00,33.0,27.0,29.87,SSW,198,4.0,12.0,78,0.00,,,-99.99,,2013-03-22 22:03:00,
2013-03-22 18:12:00,33.0,27.0,29.87,SSW,198,4.0,12.0,78,0.00,,,-99.99,,2013-03-22 22:12:00,
2013-03-22 18:23:00,33.0,27.0,29.87,SSW,198,3.0,13.0,79,0.00,,,-99.99,,2013-03-22 22:23:00,
2013-03-22 18:32:00,34.0,28.0,29.88,South,176,5.0,14.0,78,0.00,,,-99.99,,2013-03-22 22:32:00,
2013-03-22 18:42:00,34.0,28.0,29.88,South,176,5.0,14.0,78,0.00,,,-99.99,,2013-03-22 22:42:00,
2013-03-22 18:52:00,33.0,27.0,29.88,SSE,166,4.0,12.0,78,0.00,,,-99.99,,2013-03-22 22:52:00,
2013-03-22 19:02:00,33.0,27.0,29.88,SSW,212,2.0,10.0,79,0.00,,,-99.99,,2013-03-22 23:02:00,
2013-03-22 19:12:00,33.0,27.0,29.88,SSW,212,2.0,10.0,79,0.00,,,-99.99,,2013-03-22 23:12:00,
2013-03-22 19:22:00,33.0,27.0,29.88,SSW,212,2.0,10.0,79,0.00,,,-99.99,,2013-03-22 23:22:00,
2013-03-22 19:32:00,31.0,26.0,29.88,ENE,68,0.0,9.0,80,0.00,,,-99.99,,2013-03-22 23:32:00,
2013-03-22 19:42:00,31.0,26.0,29.88,ENE,68,0.0,9.0,80,0.00,,,-99.99,,2013-03-22 23:42:00,
2013-03-22 19:52:00,31.0,26.0,29.89,South,181,2.0,7.0,81,0.00,,,-99.99,,2013-03-22 23:52:00,
2013-03-22 20:02:00,30.0,25.0,29.91,SE,131,0.0,6.0,82,0.00,,,-99.99,,2013-03-23 00:02:00,
2013-03-22 20:12:00,30.0,25.0,29.91,SE,131,0.0,6.0,82,0.00,,,-99.99,,2013-03-23 00:12:00,
2013-03-22 20:23:00,30.0,25.0,29.91,WSW,242,0.0,0.0,83,0.00,,,-99.99,,2013-03-23 00:23:00,
2013-03-22 20:33:00,29.0,25.0,29.91,SW,229,0.0,0.0,83,0.00,,,-99.99,,2013-03-23 00:33:00,
2013-03-22 20:42:00,29.0,25.0,29.91,North,7,0.0,0.0,84,0.00,,,-99.99,,2013-03-23 00:42:00,
2013-03-22 20:52:00,29.0,25.0,29.91,North,7,0.0,0.0,84,0.00,,,-99.99,,2013-03-23 00:52:00,
2013-03-22 21:03:00,29.0,25.0,29.91,WSW,253,0.0,3.0,85,0.00,,,-99.99,,2013-03-23 01:03:00,
2013-03-22 21:12:00,29.0,25.0,29.91,WSW,253,0.0,3.0,85,0.00,,,-99.99,,2013-03-23 01:12:00,
2013-03-22 21:22:00,29.0,25.0,29.91,North,8,0.0,2.0,85,0.00,,,-99.99,,2013-03-23 01:22:00,
2013-03-22 21:32:00,28.0,24.0,29.91,North,8,0.0,0.0,85,0.00,,,-99.99,,2013-03-23 01:32:00,
2013-03-22 21:42:00,28.0,24.0,29.91,North,8,0.0,0.0,85,0.00,,,-99.99,,2013-03-23 01:42:00,
2013-03-22 21:52:00,28.0,24.0,29.92,WSW,250,0.0,1.0,86,0.00,,,-99.99,,2013-03-23 01:52:00,
2013-03-22 22:02:00,28.0,24.0,29.92,WSW,250,0.0,0.0,86,0.00,,,-99.99,,2013-03-23 02:02:00,
2013-03-22 22:12:00,28.0,24.0,29.92,WSW,250,0.0,0.0,86,0.00,,,-99.99,,2013-03-23 02:12:00,
2013-03-22 22:22:00,27.0,24.0,29.92,WSW,250,0.0,0.0,87,0.00,,,-99.99,,2013-03-23 02:22:00,
2013-03-22 22:32:00,27.0,24.0,29.93,WSW,250,0.0,0.0,87,0.00,,,-99.99,,2013-03-23 02:32:00,
2013-03-22 22:42:00,27.0,24.0,29.93,WSW,250,0.0,0.0,87,0.00,,,-99.99,,2013-03-23 02:42:00,
2013-03-22 22:52:00,27.0,24.0,29.93,WSW,250,0.0,0.0,88,0.00,,,-99.99,,2013-03-23 02:52:00,
2013-03-22 23:02:00,27.0,24.0,29.93,WSW,250,0.0,0.0,88,0.00,,,-99.99,,2013-03-23 03:02:00,
2013-03-22 23:12:00,27.0,24.0,29.93,WSW,250,0.0,0.0,88,0.00,,,-99.99,,2013-03-23 03:12:00,
2013-03-22 23:22:00,27.0,24.0,29.93,WSW,250,0.0,0.0,88,0.00,,,-99.99,,2013-03-23 03:22:00,
2013-03-22 23:33:00,26.0,23.0,29.93,WSW,250,0.0,0.0,89,0.00,,,-99.99,,2013-03-23 03:33:00,
2013-03-22 23:43:00,26.0,23.0,29.93,WSW,250,0.0,0.0,89,0.00,,,-99.99,,2013-03-23 03:43:00,
2013-03-22 23:53:00,26.0,23.0,29.93,WSW,250,0.0,0.0,89,0.00,,,-99.99,,2013-03-23 03:53:00,